TimeAKDT,TemperatureF,Dew PointF,Humidity,Sea Level PressureIn,VisibilityMPH,Wind Direction,Wind SpeedMPH,Gust SpeedMPH,PrecipitationIn,Events,Conditions,WindDirDegrees,DateUTC
12:53 AM,46.9,44.1,90,29.96,10.0,SW,6.9,-,N/A,,Overcast,230,2013-05-11 08:53:00
1:53 AM,46.9,44.1,90,29.95,10.0,Calm,Calm,-,N/A,,Overcast,0,2013-05-11 09:53:00
2:53 AM,46.9,44.1,90,29.91,10.0,East,6.9,-,N/A,,Overcast,80,2013-05-11 10:53:00
3:53 AM,48.0,45.0,89,29.88,10.0,Calm,Calm,-,0.00,Rain,Light Rain,0,2013-05-11 11:53:00
4:53 AM,48.9,46.0,90,29.84,10.0,Calm,Calm,-,0.00,,Overcast,0,2013-05-11 12:53:00
5:53 AM,52.0,45.0,77,29.82,10.0,SE,8.1,-,0.00,Rain,Light Rain,140,2013-05-11 13:53:00
6:53 AM,52.0,46.9,83,29.79,9.0,ESE,4.6,-,0.02,Rain,Light Rain,120,2013-05-11 14:53:00
7:53 AM,48.9,46.9,93,29.77,10.0,North,6.9,-,0.02,Rain,Light Rain,360,2013-05-11 15:53:00
8:53 AM,53.1,46.0,77,29.76,10.0,SE,15.0,20.7,0.02,Rain,Light Rain,130,2013-05-11 16:53:00
9:53 AM,54.0,45.0,72,29.75,10.0,SE,11.5,-,0.00,,Overcast,130,2013-05-11 17:53:00
10:53 AM,52.0,48.0,86,29.74,10.0,SSW,3.5,-,0.00,,Overcast,210,2013-05-11 18:53:00
11:53 AM,50.0,48.0,93,29.74,10.0,Variable,5.8,-,0.00,Rain,Light Rain,0,2013-05-11 19:53:00
12:53 PM,51.1,48.0,89,29.74,10.0,Calm,Calm,-,0.00,,Overcast,0,2013-05-11 20:53:00
1:53 PM,48.9,48.0,97,29.73,10.0,NW,6.9,-,0.02,,Overcast,320,2013-05-11 21:53:00
2:53 PM,50.0,48.0,93,29.72,10.0,WNW,4.6,-,0.01,Rain,Light Rain,290,2013-05-11 22:53:00
3:53 PM,50.0,48.9,96,29.70,8.0,NNW,3.5,-,0.03,Rain,Light Rain,330,2013-05-11 23:53:00
4:53 PM,52.0,50.0,93,29.68,10.0,ESE,6.9,-,0.01,Rain,Light Rain,110,2013-05-12 00:53:00
5:53 PM,51.1,48.0,89,29.68,10.0,SW,9.2,-,0.00,,Overcast,220,2013-05-12 01:53:00
6:53 PM,51.1,48.9,92,29.66,10.0,SSW,12.7,-,N/A,,Overcast,200,2013-05-12 02:53:00
7:53 PM,50.0,48.9,96,29.66,10.0,SSW,13.8,21.9,N/A,,Overcast,200,2013-05-12 03:53:00
8:53 PM,50.0,48.0,93,29.67,10.0,South,13.8,25.3,N/A,,Overcast,190,2013-05-12 04:53:00
9:53 PM,50.0,48.0,93,29.67,10.0,SSW,10.4,-,N/A,,Overcast,200,2013-05-12 05:53:00
10:53 PM,50.0,48.0,93,29.66,10.0,SSW,6.9,-,N/A,,Overcast,210,2013-05-12 06:53:00
11:53 PM,48.9,46.9,93,29.64,10.0,NNW,6.9,-,N/A,,Scattered Clouds,340,2013-05-12 07:53:00